Погода в Онеге

Погода в Онеге : погода сейчас, прогноз погоды и архив. Всё, что Вы хотите узнать о погоде в Онеге!

Хотите узнать прогноз погоды в Онеге? Тогда Вам сюда: Погода в Онеге

Поиск расширенной информации на нашем сайте:

Полезная информация: Монтаж систем отопления Раменское

Другие новости

Новости СМИ2

Главная страница сайта

Новости сайта

02.10.2013

Напоминаем, что на нашем новом сайте вы можете получить высокодетализированные прогнозы погоды по пунктам России, СНГ и мира (включающие важные для авиации метеовеличины, такие как направление и скорость ветра, видимость, явления погоды, количество и форма облачности, нижняя и верхняя граница облачности), а также ознакомиться с разнообразными материалами по авиационной метеорологии и подборкой полезных ссылок на эту тему.

Сайт Метеоцентр.Азия посвящён разработке технологий оптимизации авиаметеорологического обслуживания, включая проектирование и перспективное создание нескольких автоматизированных авиаметеорологических систем:
- система выпуска высокодетальных прогностических карт явлений погоды для нижнего воздушного пространства по России и ближнему зарубежью;
- система верификации прогнозов TAF (выпускаемых синоптиками официальных АМСГ РФ и ближнего зарубежья) и AUTOTAF (выпускаемых сайтом Метеоцентр.Азия) - выявление ошибок, онлайн-сопоставление с фактической погодой METAR, автоматическое внесение коррективов в прогнозы при резком отклонении фактической погоды от прогноза, подсчёт оправдываемости прогнозов по элементам и в целом;
- система обработки, анализа и отображения авиаметеорологической информации для применения провайдерами метеорологической информации.

Рекомендуем: фальцевая кровля из рулонного материала.

Погода в Онеге - сегодня

Время (UTC), дата Ветер
(°,м/с) 
Видим.   Явления Облачность Т
(°С)
Тd
(°С)
f(%) Тe
(°С)
Pmin
(гПа)
dP
(гПа)
Po
(мм)
O2
(г/м3)
Тmin Tmax R s Состояние
почвы
09 26.04.17 120 (ЮВ) 7-17{17}  20000 м    10/0 средняя 
[Ac lent]
+7.6 -3.9 44 +5  1001.5  -4.6  750  294           
12 26.04.17 130 (ЮВ) 5-13{20}  10 км  слаб. дождь  10/10 300 м 
[Frnb|Ns]
+2.6 +1.1 90 1000.3  -1.2  749  299           
15 26.04.17 140 (ЮВ) 2{13}  20000 м  {дождь}  9/4 600 м средняя 
[Sc|Ac lent]
+2.9 +1.4 90 +2  999.7  -0.7  749  298    +7.8     
18 26.04.17 130 (ЮВ) 20000 м  {дождь}  1/0 средняя 
[Ac lent]
+1.3 +0.3 93 +2  999.6  -0.1  749  300           
21 26.04.17 140 (ЮВ) 20000 м    10/0 средняя 
[Ac lent]
-0 -0.8 94 -1  999.1  -0.5  748  302           
00 27.04.17 150 (ЮВ) 20000 м  {ливн. осадки}  10/4 600 м кучево-дожд., средняя 
[Cb cap|Ac lent]
+0.1 -0.8 94 -1  998.1  -1  747  301           
03 27.04.17 150 (ЮВ) 20000 м    10/5 600 м средняя 
[Sc|Ac cast]
+1.1 -0.2 91 997.3  -0.8  747  300  -0.2    0.7  мокрый или
старый снег
50-90% 
06 27.04.17 190 (Ю) 20000 м    10/4 600 м кучево-дожд., средняя 
[Cb cap|Ac As]
+2.1 -0.2 85 -1  997.8  0.5  747  299           
09 27.04.17 210 (ЮЗ) 4{12}  20000 м  слаб. ливневой дождь  10/4 600 м кучево-дожд., средняя 
[Cb cap|Ac As]
+2.7 -0.4 80 +1  999.5  1.8  749  299           
12 27.04.17 210 (ЮЗ) 6-11{13}  20000 м  в посл. час ливневой дождь  10/5 600 м кучево-дожд., средняя 
[Cb cap|Ac As]
+3.5 -1.2 71 +1  1001.3  1.7  750  298           
15 27.04.17 220 (ЮЗ) 7-12{12}  20000 м    9/4 600 м кучево-дожд., средняя 
[Cb cap|Ac trans]
+4.3 -1.4 66 +1  1003  1.7  751  298    +4.6  0.0     
18 27.04.17 250 (З) 1{12}  20000 м  слаб. ливневой снег  10/5 300 м кучево-дожд., средняя 
[Cb cap|Ac lent]
+0.6 -0.1 95 +1  1005.2  2.2  753  303           
21 27.04.17 280 (З) 10 км  слаб. ливневой снег  10/10 240 м кучево-дожд. 
[Cb cap]
+0.1 -0.5 96 -2  1007  1.8  754  304           
00 28.04.17 250 (З) 20000 м  {ливн. осадки}  10/10 210 м 
[St]
+0.3 -0.4 95 +1  1008.9  1.9  756  304           
03 28.04.17 250 (З) 10 км  слаб. ливневой снег  10/10 400 м кучево-дожд. 
[Cb cap]
+0.5 -0.6 92 -1  1010.6  1.7  757  304  +0    равномерный
мокрый или
старый снег
100% 
06 28.04.17 280 (З) 6-10{10}  20000 м  снежные кристаллы{ливн. осадки}  10/3 300 м средняя 
[Frnb|As op]
-0.4 -1.7 91 -4  1013.4  2.2  759  306           
09 28.04.17 330 (СЗ) 5{10}  20000 м  {ливн. осадки, снег}  10/6 660 м средняя 
[Sc|Ac und]
+0 -3 80 -3  1018.1  4.6  762  308           
12 28.04.17 360 (С) 20000 м  {ливн. осадки, снег}  10/5 600 м средняя 
[Sc|Ac und]
+1.4 -4.6 64 1022.7  4.6  766  308           
15 28.04.17 350 (С) 20000 м  {снег}  10/4 600 м средняя 
[Sc|Ac und]
+1.1 -3.7 70 1026.1  3.4  768  309    +1.5  0.5     
18 28.04.17 010 (С) 20000 м  {снег}  10/0 средняя 
[Ac und]
-1.3 -4.5 79 -1  1028.7  2.6  770  312           
21 28.04.17 010 (С) н/о    н/о 
-4 -5.3 91 -4  1031  2.3  772  316           
00 29.04.17 040 (СВ) 20000 м    10/0 средняя 
[Ac und]
-5.8 -6.7 93 -8  1032.5  2.3  773  319           
03 29.04.17 060 (СВ) 20000 м    ясно 
-3.7 -6.1 83 -3  1033.9  1.4  774  317  -6.4      <0.5  мокрый или
старый снег
50-90% 
06 29.04.17 070 (В) 20000 м    1/0 верхняя 
[Ci sp]
+0 -6.8 60 -2  1034.7  0.8  775  313           
09 29.04.17 070 (В) 20000 м    3/0 средняя, верхняя 
[Ac trans|Ci fib]
+3.8 -7.6 43 +2  1034.4  -0.3  775  309           
Время (UTC), дата Ветер
(°,м/с) 
Видим.   Явления Облачность Т
(°С)
Тd
(°С)
f(%) Тe
(°С)
Pmin
(гПа)
dP
(гПа)
Po
(мм)
O2
(г/м3)
Тmin Tmax R s Состояние
почвы

Для получения пояснительной информации подведите курсор к названию столбца.

ПОГОДА в Онеге - архив

Всё, что Вы хотите узнать о погоде в Онеге - удобно и подробно!

Выберите нужную дату (начиная с 1 января 2015* года) и нажмите кнопку "Найти".
Будут отображены архивные сводки погоды по пункту Онега, начиная с указанной даты.


Отображать данные в формате CSV (для использования в таблицах Excel)


Внимание! Наш архив погоды предназначен исключительно для личного некоммерческого использования в познавательных целях. Если Вам необходимы официальные справки о состоянии погоды (для производственных, юридических, коммерческих и т.п. целей), обращайтесь в органы Росгидромета.

*Примечание: данная дата относится к архиву по метеостанциям СССР (Россия, СНГ, Балтия).
Архив по метеостанциям Зарубежной Европы и Азии (кроме Китая) хранится 10 дней, по другим регионам земного шара (Китай, Африка, Америка, Австралия, Океания) - 1 день.

Онега - район местоположения метеостанции


Название, широта, долгота, высота метеостанции:
Онега 63.9°ш. 38.1°д. 13 м над ур. моря [Российская Федерация]

Дополнительная информация

В oтличие oт бoльшинства пoгoдных сайтoв мы публикуем пoдрoбную метеoинфoрмацию в детальнoм прoфессиoнальнoм фoрмате.

Характеристики температуры и влажнoсти вoздуха измеряются на высoте 2 м в тени вдали oт зданий и деревьев.
Скoрoсть ветра измеряется на высoте 10 м (на урoвне рoста челoвека скoрoсть ветра ниже в 1.5-2 раза). Если метеoстанция нахoдится в гoрoде или в лесу, тo скoрoсть ветра занижена на 2-4 м/с пo сравнению с oткрытым местoм. Скoрoсть ветра над акватoриями крупных рек и oзёр, а также на вершинах хoлмoв на 2-5 м/с выше, чем в oбычных услoвиях.
Атмoсфернoе давление в разных тoчках местнoсти мoжет значительнo oтличаться oт давления на метеoстанции, в зависимoсти oт услoвий рельефа (при пoдъёме на 10 м давление пoнижается примернo на 1 мм рт.ст.).